User: anonymous
Location: Brno
(49.2000°N, 16.6330°E)
Time: 04:41:37
(UTC+02:00)
Language:

Cosmos 1603 - Orbit

View from above orbital plane
View from above orbital plane
View from above satellite
View from above satellite

Ground track
Ground track

The orbit data is extracted from the following two-line orbital elements,

1 15333U 84106A   14112.13516168  .00000252  00000-0  15729-3 0  9686
2 15333 071.0291 344.5153 0018938 166.2737 001.4633 14.13934453525414
Epoch (UTC): 22 April 2014 03:14:37
Eccentricity: 0.0018938
inclination: 71.0291°
perigee height: 832 km
apogee height: 859 km
right ascension of ascending node: 344.5153°
argument of perigee: 166.2737°
revolutions per day: 14.13934453
mean anomaly at epoch: 1.4633°
orbit number at epoch: 52541

The dashed part of the orbit path shows where the satellite is in the earth's shadow,  

DLR